Maple Lake, MN

2:54 AM CST on November 18, 2017 (GMT -0600)
Maple Lake Municipal

Weather History for KMGG - August, 2013

Change the Weather History Date:

Sunday, August 25, 2013

  Actual Average (KSTC) Record (KSTC)
Temperature  
Mean Temperature 84 °F -  
Max Temperature 92 °F 78 °F 94 °F (2013)
Min Temperature 75 °F 57 °F 40 °F (1945)
Cooling Degree Days 18    
Growing Degree Days 34 (Base 50)    
Moisture  
Dew Point 74 °F    
Average Humidity 74    
Maximum Humidity 87    
Minimum Humidity 58    
Precipitation  
Precipitation 0.00 in - - ()
Sea Level Pressure  
Sea Level Pressure 29.97 in    
Wind  
Wind Speed 7 mph (SSW)    
Max Wind Speed 10 mph    
Max Gust Speed 20 mph    
Visibility 10 miles    
Events      
Averages and records for this station are not official NWS values.
T = Trace of Precipitation, MM = Missing Value Source: NWS Daily Summary

Daily Weather History Graph

Daily Weather History Graph

Search for Another Location

Airport or City:

Trip Planner

Search our weather history database for the weather conditions in past years. The results will help you decide how hot, cold, wet, or windy it might be!

Date:

Astronomy

Aug. 25, 2013 Rise Set
Actual Time 6:29 AM CDT 8:05 PM CDT
Civil Twilight 5:58 AM CDT 8:36 PM CDT
Nautical Twilight 5:20 AM CDT 9:13 PM CDT
Astronomical Twilight 4:40 AM CDT 9:54 PM CDT
Moon 10:19 PM CDT (8/25) 11:49 AM CDT (8/25)
Length of Visible Light 14h 37m
Length of Day
13h 35m
Waning Gibbous, 75% of the Moon is Illuminated
Aug 25
Waning Gibbous
Aug 28
Last Quarter
Sep 5
New
Sep 12
First Quarter
Sep 19
Full

Hourly Weather History & Observations

Time (CDT) Temp. Heat Index Dew Point Humidity Pressure Visibility Wind Dir Wind Speed Gust Speed Precip Events Conditions
12:16 AM 80.1 °F 84.1 °F 72.5 °F 78% 29.95 in 10.0 mi South 9.2 mph 18.4 mph N/A   Clear
12:36 AM 79.7 °F - 72.5 °F 79% 29.96 in 10.0 mi South 9.2 mph 16.1 mph N/A   Clear
12:56 AM 79.7 °F - 72.1 °F 78% 29.96 in 10.0 mi South 8.1 mph - N/A   Clear
1:16 AM 79.7 °F - 72.0 °F 77% 29.97 in 10.0 mi South 5.8 mph - N/A   Clear
1:36 AM 79.3 °F - 71.8 °F 78% 29.97 in 10.0 mi South 8.1 mph - N/A   Clear
1:56 AM 79.2 °F - 71.8 °F 78% 29.97 in 10.0 mi South 4.6 mph - N/A   Clear
2:16 AM 78.8 °F - 71.8 °F 79% 29.97 in 10.0 mi South 4.6 mph - N/A   Clear
2:36 AM 78.8 °F - 71.6 °F 78% 29.97 in 10.0 mi SSW 5.8 mph - N/A   Clear
2:56 AM 78.1 °F - 71.6 °F 80% 29.97 in 10.0 mi South 6.9 mph - N/A   Clear
3:16 AM 77.9 °F - 71.6 °F 81% 29.97 in 10.0 mi SSW 5.8 mph - N/A   Clear
3:36 AM 77.5 °F - 71.6 °F 82% 29.97 in 10.0 mi South 6.9 mph - N/A   Clear
3:56 AM 77.2 °F - 71.6 °F 83% 29.97 in 10.0 mi South 5.8 mph - N/A   Clear
4:16 AM 77.0 °F - 71.6 °F 83% 29.97 in 10.0 mi South 6.9 mph - N/A   Clear
4:36 AM 76.6 °F - 71.6 °F 84% 29.97 in 10.0 mi South 5.8 mph - N/A   Clear
4:56 AM 76.5 °F - 71.6 °F 85% 29.98 in 10.0 mi South 5.8 mph - N/A   Clear
5:16 AM 76.5 °F - 71.6 °F 85% 29.98 in 10.0 mi South 5.8 mph - N/A   Clear
5:36 AM 76.1 °F - 71.6 °F 86% 29.97 in 10.0 mi South 6.9 mph - N/A   Scattered Clouds
5:56 AM 76.1 °F - 71.6 °F 86% 29.98 in 10.0 mi South 6.9 mph - N/A   Scattered Clouds
6:16 AM 76.1 °F - 71.6 °F 86% 29.99 in 10.0 mi South 4.6 mph - N/A   Scattered Clouds
6:36 AM 75.9 °F - 71.4 °F 86% 29.98 in 10.0 mi South 5.8 mph - N/A   Scattered Clouds
6:56 AM 75.9 °F - 71.4 °F 86% 29.99 in 10.0 mi South 4.6 mph - N/A   Scattered Clouds
7:16 AM 76.1 °F - 71.6 °F 86% 29.99 in 10.0 mi South 5.8 mph - N/A   Clear
7:36 AM 75.7 °F - 71.6 °F 87% 30.00 in 10.0 mi SSW 4.6 mph - N/A   Clear
7:56 AM 76.1 °F - 71.6 °F 86% 30.00 in 10.0 mi South 4.6 mph - N/A   Scattered Clouds
8:16 AM 77.4 °F - 72.0 °F 83% 30.00 in 10.0 mi SSW 4.6 mph - N/A   Scattered Clouds
8:36 AM 77.5 °F - 72.1 °F 83% 30.01 in 10.0 mi SSW 3.5 mph - N/A   Scattered Clouds
8:56 AM 77.5 °F - 72.3 °F 84% 30.02 in 10.0 mi SSW 3.5 mph - N/A   Mostly Cloudy
9:16 AM 78.3 °F - 72.7 °F 83% 30.00 in 10.0 mi South 5.8 mph - N/A   Scattered Clouds
9:36 AM 77.9 °F - 72.5 °F 83% 29.99 in 10.0 mi South 4.6 mph - N/A   Clear
9:56 AM 78.1 °F - 72.9 °F 84% 29.99 in 10.0 mi South 5.8 mph - N/A   Clear
10:16 AM 80.8 °F 85.8 °F 73.6 °F 79% 29.99 in 10.0 mi South 5.8 mph - N/A   Clear
10:36 AM 83.3 °F 89.9 °F 73.9 °F 73% 29.99 in 10.0 mi South 8.1 mph 19.6 mph N/A   Clear
10:56 AM 85.1 °F 92.9 °F 74.3 °F 70% 29.99 in 10.0 mi South 10.4 mph 18.4 mph N/A   Clear
11:16 AM 86.0 °F 94.2 °F 74.1 °F 68% 29.99 in 10.0 mi SSW 9.2 mph - N/A   Clear
11:36 AM 86.9 °F 95.4 °F 74.1 °F 66% 29.99 in 10.0 mi SSW 5.8 mph 17.3 mph N/A   Clear
11:56 AM 87.6 °F 96.7 °F 74.7 °F 65% 29.98 in 10.0 mi SSW 6.9 mph - N/A   Clear
12:16 PM 88.9 °F 98.6 °F 74.7 °F 63% 29.98 in 10.0 mi South 6.9 mph - N/A   Clear
12:36 PM 89.1 °F 98.0 °F 74.1 °F 61% 29.98 in 10.0 mi SSW 10.4 mph - N/A   Clear
12:56 PM 89.8 °F 99.7 °F 74.7 °F 61% 29.97 in 10.0 mi SSW 9.2 mph - N/A   Clear
1:16 PM 90.5 °F 100.9 °F 74.7 °F 60% 29.96 in 10.0 mi South 10.4 mph 17.3 mph N/A   Clear
1:36 PM 90.1 °F 99.4 °F 74.3 °F 59% 29.96 in 10.0 mi SSW 10.4 mph 17.3 mph N/A   Clear
1:56 PM 90.1 °F 100.6 °F 75.0 °F 61% 29.95 in 10.0 mi South 6.9 mph - N/A   Clear
2:16 PM 90.5 °F 100.9 °F 75.0 °F 60% 29.95 in 10.0 mi SSW 8.1 mph - N/A   Clear
2:36 PM 91.6 °F 103.6 °F 76.1 °F 60% 29.95 in 10.0 mi South 10.4 mph - N/A   Clear
2:56 PM 91.9 °F 104.5 °F 76.5 °F 60% 29.95 in 10.0 mi SSW 5.8 mph - N/A   Clear
3:16 PM 92.7 °F 105.0 °F 75.9 °F 58% 29.95 in 10.0 mi South 9.2 mph - N/A   Clear
3:36 PM 92.3 °F 104.8 °F 76.1 °F 59% 29.94 in 10.0 mi South 10.4 mph 16.1 mph N/A   Clear
3:56 PM 92.3 °F 104.8 °F 76.1 °F 59% 29.94 in 10.0 mi South 5.8 mph - N/A   Clear
4:16 PM 92.3 °F 104.1 °F 75.6 °F 58% 29.94 in 10.0 mi SSW 8.1 mph 18.4 mph N/A   Clear
4:36 PM 92.3 °F 104.1 °F 75.6 °F 58% 29.93 in 10.0 mi South 9.2 mph - N/A   Clear
4:56 PM 92.3 °F 104.1 °F 75.7 °F 58% 29.94 in 10.0 mi South 8.1 mph - N/A   Clear
5:16 PM 92.1 °F 104.3 °F 75.7 °F 59% 29.94 in 10.0 mi SSW 9.2 mph 17.3 mph N/A   Clear
5:36 PM 91.4 °F 103.1 °F 75.6 °F 60% 29.94 in 10.0 mi South 6.9 mph - N/A   Clear
5:55 PM 91.2 °F 102.7 °F 75.7 °F 60% 29.94 in 10.0 mi SSW 5.8 mph - N/A   Clear
6:16 PM 90.5 °F 101.5 °F 75.4 °F 61% 29.94 in 10.0 mi SSW 5.8 mph - N/A   Clear
6:36 PM 90.0 °F 100.7 °F 75.4 °F 62% 29.94 in 10.0 mi South 4.6 mph - N/A   Clear
6:56 PM 89.1 °F 100.2 °F 75.9 °F 65% 29.94 in 10.0 mi South 4.6 mph - N/A   Clear
7:16 PM 88.0 °F 99.1 °F 76.1 °F 68% 29.94 in 10.0 mi South 4.6 mph - N/A   Clear
7:36 PM 87.1 °F 96.8 °F 75.6 °F 68% 29.94 in 10.0 mi South 4.6 mph - N/A   Clear
7:56 PM 86.5 °F 95.9 °F 75.2 °F 69% 29.94 in 10.0 mi South 4.6 mph - N/A   Clear
8:16 PM 85.5 °F 94.2 °F 75.2 °F 71% 29.94 in 10.0 mi SSW 3.5 mph - N/A   Clear
8:36 PM 85.1 °F 94.1 °F 75.4 °F 73% 29.95 in 10.0 mi SSW 4.6 mph - N/A   Clear
8:56 PM 84.6 °F 93.2 °F 75.4 °F 74% 29.96 in 10.0 mi SSW 3.5 mph - N/A   Clear
9:15 PM 83.7 °F 91.7 °F 75.4 °F 76% 29.97 in 10.0 mi South 4.6 mph - N/A   Clear
9:36 PM 83.3 °F 91.1 °F 75.4 °F 77% 29.97 in 10.0 mi South 3.5 mph - N/A   Clear
9:56 PM 82.8 °F 90.1 °F 75.4 °F 78% 29.98 in 10.0 mi Calm Calm - N/A   Clear
10:16 PM 82.0 °F 88.9 °F 75.4 °F 80% 29.98 in 10.0 mi South 4.6 mph - N/A   Clear
10:36 PM 81.9 °F 88.5 °F 75.2 °F 80% 29.99 in 10.0 mi Calm Calm - N/A   Clear
10:56 PM 81.5 °F 87.8 °F 75.2 °F 81% 29.99 in 10.0 mi South 3.5 mph - N/A   Clear
11:16 PM 80.8 °F 86.5 °F 75.2 °F 83% 29.99 in 10.0 mi South 3.5 mph - N/A   Clear
11:36 PM 80.6 °F 86.2 °F 75.2 °F 84% 29.99 in 10.0 mi South 3.5 mph - N/A   Scattered Clouds
11:56 PM 81.1 °F 87.2 °F 75.2 °F 82% 29.99 in 10.0 mi SSW 3.5 mph - N/A   Mostly Cloudy